Weather History for Athens, GA

Change the Weather History Date:

Tuesday, September 3, 2013

  Actual Average Record
Temperature  
Mean Temperature 81 °F 77 °F  
Max Temperature 90 °F 88 °F 102 °F (1925)
Min Temperature 71 °F 67 °F 55 °F (1952)
Degree Days  
Heating Degree Days 0 0  
Month to date heating degree days 0 0  
Since 1 July heating degree days 3 0  
Cooling Degree Days 16 12  
Month to date cooling degree days 44 37  
Year to date cooling degree days 1371 1592  
Growing Degree Days 30 (Base 50)    
Moisture  
Dew Point 70 °F    
Average Humidity 73    
Maximum Humidity 93    
Minimum Humidity 52    
Precipitation  
Precipitation 0.00 in 0.12 in 4.10 in (1928)
Month to date precipitation 0.34 0.34  
Year to date precipitation 46.50 31.63  
Sea Level Pressure  
Sea Level Pressure 29.92 in    
Wind  
Wind Speed 3 mph (WNW)    
Max Wind Speed 12 mph    
Max Gust Speed 16 mph    
Visibility 6 miles    
Events      
T = Trace of Precipitation, MM = Missing Value Source: NWS Daily Summary

Daily Weather History Graph

Daily Weather History Graph

Search for Another Location

Airport:

Trip Planner

Search our weather history database for the weather conditions in past years. The results will help you decide how hot, cold, wet, or windy it might be!

Date:

Astronomy

Sep. 03, 2013 Rise Set
Actual Time 7:08 AM EDT 7:56 PM EDT
Civil Twilight 6:43 AM EDT 8:21 PM EDT
Nautical Twilight 6:13 AM EDT 8:51 PM EDT
Astronomical Twilight 5:42 AM EDT 9:22 PM EDT
Moon 5:23 AM EDT (9/3) 6:41 PM EDT (9/3)
Length of Visible Light 13h 38m
Length of Day
12h 47m
Waning Crescent, 3% of the Moon is Illuminated
Sep 3
Waning Crescent
Sep 5
New
Sep 12
First Quarter
Sep 19
Full
Sep 26
Last Quarter

Hourly Weather History & Observations

Time (EDT) Temp. Heat Index Dew Point Humidity Pressure Visibility Wind Dir Wind Speed Gust Speed Precip Events Conditions
12:51 AM 73.0 °F - 70.0 °F 90% 29.90 in 6.0 mi Calm Calm - N/A   Clear
1:51 AM 73.0 °F - 69.1 °F 87% 29.89 in 6.0 mi West 3.5 mph - N/A   Clear
2:51 AM 73.0 °F - 69.1 °F 87% 29.88 in 5.0 mi West 6.9 mph - N/A   Clear
3:51 AM 72.0 °F - 70.0 °F 93% 29.89 in 6.0 mi West 3.5 mph - N/A   Scattered Clouds
4:51 AM 72.0 °F - 70.0 °F 93% 29.87 in 6.0 mi West 3.5 mph - N/A   Clear
5:51 AM 71.1 °F - 70.0 °F 96% 29.89 in 5.0 mi Calm Calm - N/A   Clear
6:51 AM 71.1 °F - 70.0 °F 96% 29.91 in 5.0 mi NW 3.5 mph - N/A   Partly Cloudy
7:51 AM 73.0 °F - 71.1 °F 93% 29.93 in 4.0 mi WNW 3.5 mph - N/A   Clear
8:51 AM 73.9 °F - 71.1 °F 91% 29.95 in 5.0 mi WNW 3.5 mph - N/A   Mostly Cloudy
9:39 AM 75.2 °F - 71.6 °F 89% 29.97 in 5.0 mi ENE 4.6 mph - N/A   Mostly Cloudy
9:47 AM 75.2 °F - 71.6 °F 89% 29.97 in 5.0 mi ENE 3.5 mph - N/A   Overcast
9:51 AM 75.9 °F - 71.1 °F 85% 29.95 in 5.0 mi Calm Calm - N/A   Haze
10:14 AM 78.8 °F - 71.6 °F 78% 29.96 in 6.0 mi Calm Calm - N/A   Haze
10:51 AM 81.0 °F 84.9 °F 71.1 °F 72% 29.94 in 7.0 mi WNW 3.5 mph - N/A   Clear
11:51 AM 82.9 °F 87.5 °F 71.1 °F 67% 29.94 in 7.0 mi Variable 3.5 mph - N/A   Clear
12:51 PM 86.0 °F 91.5 °F 71.1 °F 61% 29.94 in 7.0 mi Variable 4.6 mph - N/A   Clear
1:51 PM 88.0 °F 93.8 °F 71.1 °F 57% 29.93 in 7.0 mi West 8.1 mph - N/A   Partly Cloudy
2:51 PM 90.0 °F 95.4 °F 70.0 °F 52% 29.91 in 8.0 mi West 6.9 mph - N/A   Clear
3:51 PM 87.1 °F 92.0 °F 70.0 °F 57% 29.88 in 7.0 mi NNW 6.9 mph - N/A   Overcast
4:51 PM 90.0 °F 95.4 °F 70.0 °F 52% 29.88 in 7.0 mi NNW 4.6 mph - N/A   Mostly Cloudy
5:51 PM 89.1 °F 93.7 °F 69.1 °F 52% 29.88 in 8.0 mi NW 4.6 mph - N/A   Partly Cloudy
6:51 PM 86.0 °F 89.4 °F 68.0 °F 55% 29.88 in 8.0 mi Variable 3.5 mph - N/A   Partly Cloudy
7:51 PM 82.0 °F 84.9 °F 68.0 °F 62% 29.90 in 8.0 mi Calm Calm - N/A   Clear
8:51 PM 78.1 °F - 69.1 °F 74% 29.93 in 7.0 mi Calm Calm - N/A   Clear
9:51 PM 75.0 °F - 71.1 °F 87% 29.95 in 7.0 mi Calm Calm - N/A   Clear
10:51 PM 73.0 °F - 70.0 °F 90% 29.96 in 6.0 mi Calm Calm - N/A   Clear
11:51 PM 73.0 °F - 70.0 °F 90% 29.98 in 6.0 mi Calm Calm - N/A   Clear